Regional Weather Roundup
Issued by NWS

Home | Current Version | Previous Version | Graphics & Text | Print | Product List | Glossary On
Versions: 1 2 3 4 5 6 7 8 9 10 11 12 13 14 15 16 17 18 19 20 21 22 23 24 25 26 27 28 29 30 31 32 33 34 35 36 37 38 39 40 41 42 43 44 45 46 47 48 49 50
701
ASUS45 KTFX 181410
RWRMT
MONTANA REGIONAL WEATHER ROUNDUP
NATIONAL WEATHER SERVICE GREAT FALLS MT
800 AM MDT WED OCT 18 2017

NOTE: "FAIR" INDICATES FEW OR NO CLOUDS BELOW 12000 FEET WITH NO
SIGNIFICANT WEATHER AND/OR OBSTRUCTIONS TO VISIBILITY.

MTZ001>007-043-181500-
WEST OF THE DIVIDE

CITY           SKY/WX    TMP DP  RH WIND       PRES   REMARKS
KALISPELL      CLOUDY    30  27  88 W6        30.01F WCI  24
MISSOULA       MOCLDY    44  32  62 N3        30.04F
BUTTE          CLOUDY    39  23  52 N7        30.06S
MULLAN PASS    CLOUDY    34  24  67 W7        30.01S WCI  28
ANACONDA         N/A     39  25  56 SW5       30.05S
DEER LODGE       N/A     36  28  75 CALM      30.07S
EUREKA           N/A     30  25  80 MISG      30.01S
HAMILTON         N/A     43  30  61 S10       30.05F
LIBBY            N/A     32  27  80 CALM      30.01S
PLAINS           N/A     38  28  67 CALM      30.04S
$$

MTZ008-052>055-181500-
SOUTHWEST MONTANA

CITY           SKY/WX    TMP DP  RH WIND       PRES   REMARKS
BOZEMAN        CLOUDY    40  23  50 NE6       30.03R
DILLON         CLOUDY    38  19  46 S10       30.06S WCI  31
W YELLOWSTONE  CLOUDY    27  19  74 CALM      30.19R
ENNIS          CLOUDY    43  16  33 S17       30.13R
$$

MTZ009-010-012-014-046-048-049-054-181500-
EAST SLOPES AND CENTRAL MONTANA

CITY           SKY/WX    TMP DP  RH WIND       PRES   REMARKS
CUT BANK       CLOUDY    41  14  33 W9        29.93S
GREAT FALLS    CLOUDY    48  28  46 SW10      29.97R
MALMSTROM AFB  CLOUDY    42  21  42 NE5       29.97S
HELENA         CLOUDY    42  31  64 W5        30.02R
BOWMANS CRNR     N/A     42  27  57 SW13      29.95S
CHOTEAU          N/A     41  23  48 E7        29.96F
FAIRFIELD        N/A     40  22  48 E9        29.95R
POWER            N/A     39  21  48 E7        29.96R
RAYNESFORD     MOCLDY    51  31  47 W10       29.97S
ULM              N/A     51  32  48 SW15G22   29.97R
$$

MTZ011-013-016-021-045-047-050-051-181500-
NORTH CENTRAL MONTANA

CITY           SKY/WX    TMP DP  RH WIND       PRES   REMARKS
HAVRE          CLOUDY    27  25  92 SW8       29.96S WCI  19
LEWISTOWN      PTCLDY    31  24  75 SE8       30.00R WCI  23
N BAR RANCH      N/A     34  21  60 VRB3      30.03R
CHINOOK          N/A     28  27  93 CALM      29.95S
DENTON           N/A     37  26  65 S9        29.96S WCI  30
GEYSER           N/A     41  22  48 SE13      29.97F
GRASS RANGE      N/A     35  24  62 W6        29.97R WCI  30
JUDITH GAP       N/A     38  24  58 W6        30.00R
WINIFRED         N/A     39  20  46 S6        29.98S
$$

MTZ017>020-022>027-061-062-181500-
NORTHEAST MONTANA

CITY           SKY/WX    TMP DP  RH WIND       PRES   REMARKS
GLASGOW        CLEAR     38  28  67 W9        29.96R WCI  31
JORDAN           N/A     36  30  79 W5        30.00R
SIDNEY         PTCLDY    41  25  53 W9        29.97R
WOLF POINT     CLEAR     43  25  49 SW10      29.96S
MALTA          CLEAR     34  28  80 NW8       29.97S WCI  27
PLENTYWOOD       N/A     36  19  51 CALM      29.89R
POPLAR           N/A     39  25  56 W7        29.96R
SCOBEY           N/A     36  17  46 W7        29.89  WCI  30
$$

MTZ028>42-056>058-181500-
SOUTHCENTRAL AND SOUTHEAST MONTANA

CITY           SKY/WX    TMP DP  RH WIND       PRES   REMARKS
BAKER          CLOUDY    37  30  75 W9        30.01R WCI  30
BILLINGS       PTCLDY    43  30  60 S5        30.03R
LIVINGSTON     CLOUDY    49  21  33 W14       30.00R
MILES CITY     CLOUDY    38  28  67 W9        30.03R WCI  31
BIG TIMBER     CLEAR     52  16  24 W5        30.03R
EKALAKA          N/A     38  24  57 W2        30.00
FORSYTH          N/A     37  28  70 CALM      30.03R
HARLOWTON        N/A     47  28  46 MISG      30.01R
LAUREL           N/A     43  28  56 NE13      30.02S
$$

REGIONAL REPORTS...DAKOTAS

CITY           SKY/WX    TMP DP  RH WIND       PRES   REMARKS
WILLISTON      CLEAR     42  20  41 W14       29.92R
MINOT          PTCLDY    47  23  38 W18G28    29.81R
DICKINSON      CLOUDY    40  27  59 W8        29.94R
BEACH            N/A     41  25  52 NW12      29.99S
CROSBY           N/A     41  18  38 W25G31    29.83R
TIOGA            N/A     39  19  45 W22       29.87R WCI  29
WATFORD CITY     N/A     41  25  52 W8        29.93R
BISMARCK       CLOUDY    51  28  41 NW9       29.91R
GRAND FORKS    MOCLDY    57  38  48 W17G32    29.69R
FARGO          PTSUNNY   50  42  74 SW8       29.73R
BUFFALO SD       N/A     44  27  51 NW15      29.94R
RAPID CITY     CLEAR     49  28  44 N14       30.03R
$$

REGIONAL REPORTS...WYOMING/IDAHO/WASHINGTON

CITY           SKY/WX    TMP DP  RH WIND       PRES   REMARKS
GILLETTE       CLOUDY    40  27  59 CALM      30.07R
SHERIDAN       CLOUDY    37  25  61 NW7       30.05R WCI  32
BUFFALO WY     CLOUDY    47  16  29 VRB3      30.07R
CODY           CLOUDY    55  16  21 SW3       30.06S
IDAHO FALLS    CLOUDY    30  25  81 CALM      30.17R
SALMON         CLEAR     25  22  88 CALM      30.11R
BOISE          CLEAR     43  29  57 SE8       30.12S
SPOKANE        CLOUDY    43  31  62 S9        30.00F
$$

REGIONAL REPORTS...ALBERTA

CITY           SKY/WX    TMP DP  RH WIND       PRES   REMARKS
EDMONTON       CLEAR     32  23  69 W8        29.78R WCI  25
CALGARY        MOCLDY    36  12  38 SW5       29.83F
LETHBRIDGE     MOCLDY    43  16  33 SW10G20   29.89F
MEDICINE HAT   MOCLDY    32  25  74 W7        29.88F WCI  26
$$

REGIONAL REPORTS...SASKATCHEWAN

CITY           SKY/WX    TMP DP  RH WIND       PRES   REMARKS
SWIFT CURRENT  CLEAR     34  23  64 W18G28    29.83R WCI  23
REGINA         PTCLDY    39  21  48 W30G39    29.72R WCI  27
SASKATOON      CLEAR     39  23  52 W30G38    29.62R WCI  27
$$




USA.gov is the U.S. government's official web portal to all federal, state and local government web resources and services.